Overview Statistics Trail Chart Weather Telemetry Raw packets
 

This is the latest recevied weather packets stored in our database for station/object SM6LNJ-10. If no packets are shown the sender has not sent any weather packets the latest 10 day(s).

<< 1 2 3 4 5 6 7 >>
Time Temp. Humidity Pressure Rain* Wind** Luminosity Snow
1788361286 27.22° C 40% 1010.1 hPa - - - -
1788360384 27.22° C 41% 1010.2 hPa - - - -
1788359484 27.22° C 43% 1010.3 hPa - - - -
1788358583 26.67° C 43% 1010.2 hPa - - - -
1788357682 26.67° C 43% 1010.3 hPa - - - -
1788356781 26.11° C 44% 1010.3 hPa - - - -
1788354980 26.11° C 44% 1010.4 hPa - - - -
1788354079 26.11° C 45% 1010.4 hPa - - - -
1788353178 25.56° C 45% 1010.5 hPa - - - -
1788352277 25.56° C 46% 1010.5 hPa - - - -
1788351376 25.56° C 45% 1010.6 hPa - - - -
1788350477 25° C 45% 1010.7 hPa - - - -
1788349575 25° C 44% 1010.7 hPa - - - -
1788348674 25° C 46% 1010.6 hPa - - - -
1788347773 25° C 46% 1010.6 hPa - - - -
1788346872 24.44° C 46% 1010.7 hPa - - - -
1788345972 25° C 46% 1010.7 hPa - - - -
1788345071 24.44° C 46% 1010.8 hPa - - - -
1788344170 24.44° C 47% 1010.7 hPa - - - -
1788343269 24.44° C 46% 1010.8 hPa - - - -
1788342368 24.44° C 46% 1010.7 hPa - - - -
1788341481 24.44° C 46% 1010.7 hPa - - - -
1788340567 24.44° C 46% 1010.6 hPa - - - -
1788339666 23.89° C 46% 1010.4 hPa - - - -
1788338765 24.44° C 47% 1010.4 hPa - - - -

* Rain since midnight (hover to see other rain measurements)
** Current wind speed in m/s (hover to see current wind gust speed)